Lexington Weather

Lexington, Massachusetts, USA

54°F
6/9/2023 9:41pm 
  • Lexington Conditions: Few Clouds
  • Temperature: 54.3°F / 12.4°CColder 1.3°F than last hour.
  • Dew Point: 52.7°FDecreased 1.3°Fsince last hour.
  • Relative Humidity: 94
  • Wind: Calm, 10-min avg: Calm, gust: None
  • Barometer: 29.69 in Steady
  • Visibility: 10 miles
  • Rain Today: 0.22 in
  •   

Regional Weather Roundup
for Boston, MA

        
000
ASUS41 KBOX 030410
RWRBOX

REGIONAL WEATHER ROUNDUP
NATIONAL WEATHER SERVICE BOSTON/NORTON MA
1200 AM EDT SAT JUN 03 2023

NOTE:  "FAIR" INDICATES FEW OR NO CLOUDS BELOW 12,000 FEET WITH NO 
SIGNIFICANT WEATHER AND/OR OBSTRUCTIONS TO VISIBILITY.

MAZALL-030500-
EASTERN MASSACHUSETTS
  
CITY           SKY/WX    TMP DP  RH WIND       PRES   REMARKS
BOSTON         CLOUDY    58  55  90 NE14      29.98R                  
BEVERLY        MOCLDY    56  54  93 NE12G18   29.97F                  
LAWRENCE       MOCLDY    58  54  86 E8        29.98F                  
BEDFORD        CLOUDY    59  57  93 NE9       29.97S                  
NORWOOD        LGT RAIN  59  55  87 NE10G17   29.97R FOG              
MARSHFIELD     LGT RAIN  57  54  88 NE10G18   29.96R                  
PLYMOUTH       CLOUDY    58  53  84 NE13G22   29.94R                  
TAUNTON        LGT RAIN  61  55  81 VRB5      29.94R                  
NEW BEDFORD    MOCLDY    59  57  93 N12G20    29.92R                  
$$

MAZALL-030500-
CAPE COD AND THE ISLANDS
  
CITY           SKY/WX    TMP DP  RH WIND       PRES   REMARKS
FALMOUTH       CLOUDY    59  59 100 NE13G21   29.92R                  
HYANNIS        CLOUDY    60  59  96 NE14      29.89R FOG              
CHATHAM        FOG       62  60  93 NE9       29.91R VSB 1/2          
PROVINCETOWN   LGT RAIN  55  54  96 NE16G23   29.95S FOG              
NANTUCKET      CLOUDY    61  61 100 NW5       29.89S FOG              
MARTHAS VNYRD  PTCLDY    61  59  93 N10       29.90S                  
$$
 
MAZALL-030500-
CENTRAL AND WESTERN MASSACHUSETTS
  
CITY           SKY/WX    TMP DP  RH WIND       PRES   REMARKS
WORCESTER      CLOUDY    59  57  93 NE12G18   29.96F                  
FITCHBURG      CLOUDY    60  55  83 NE10G17   30.00R                  
ORANGE         LGT RAIN  65  63  93 E5        29.95F                  
SPRINGFIELD    LGT RAIN  66  65  99 CALM      29.91F                  
WESTFIELD      LGT RAIN  66  64  93 N6        29.94S                  
NORTH ADAMS    CLOUDY    65  62  90 SE8       29.93F                  
PITTSFIELD     RAIN      63  60  90 CALM      29.96R                  
$$
 
RIZALL-030500-
RHODE ISLAND
  
CITY           SKY/WX    TMP DP  RH WIND       PRES   REMARKS
PROVIDENCE     LGT RAIN  62  58  86 NE14      29.95R                  
NEWPORT        CLOUDY    64  56  75 N13       29.92R                  
BLOCK ISLAND   PTCLDY    62  60  93 NE3       29.92S                  
SMITHFIELD     LGT RAIN  59  58  96 NE10      29.97R                  
WESTERLY       CLOUDY    67  60  78 NE6       29.91S                  
$$
 
CTZALL-030500-
CONNECTICUT
  
CITY           SKY/WX    TMP DP  RH WIND       PRES   REMARKS
BRADLEY INTL   LGT RAIN  68  65  90 N13       29.94R                  
HARTFORD       MOCLDY    70  66  87 N7        29.93R                  
BRIDGEPORT     PTCLDY    68  58  70 E9        29.91R                  
DANBURY        PTCLDY    68  63  84 E5        29.92R                  
GROTON         CLOUDY    70  61  73 E8        29.89F                  
NEW HAVEN      PTCLDY    70  66  87 N3        29.91R                  
CHESTER        MOCLDY    68  66  94 N6        29.92R                  
MERIDEN        PTCLDY    67  63  87 CALM      29.91S                  
WILLIMANTIC    LGT RAIN  66  65  96 N3        29.93R                  
OXFORD         CLOUDY    67  63  87 E6        29.93F                  
$$

MEZ002-015-021-024-NHZ003-005-008-011-012-014-VTZ005-008-030500-
NORTHERN NEW ENGLAND
  
CITY           SKY/WX    TMP DP  RH WIND       PRES   REMARKS
PORTLAND ME    CLOUDY    54  53  97 E7        30.03S FOG              
BANGOR ME      LGT RAIN  50  48  93 NE12      30.09R                  
CONCORD NH     MOCLDY    59  54  83 VRB6      30.01R                  
MANCHESTER NH  CLOUDY    59  54  83 VRB5      29.98F                  
NASHUA NH      PTCLDY    58  58 100 VRB3      30.00S                  
PORTSMOUTH NH  LGT RAIN  57  54  88 N12       29.99R FOG              
JAFFREY NH     MOCLDY    60  56  86 VRB3      30.01R                  
KEENE NH       CLOUDY    62  59  90 NE9G17    29.97R                  
BURLINGTON VT  CLOUDY    67  55  65 N17       29.97R                  
MT. WASHINGTON FOG       48  48 100 E7          N/A  VSB 0            
$$

NYZ052-076-030500-
EASTERN NEW YORK
  
CITY           SKY/WX    TMP DP  RH WIND       PRES   REMARKS
ALBANY         CLOUDY    71  61  70 CALM      29.93R                  
NEW YORK CITY  MOCLDY    72  51  47 CALM      29.86F                  
$$
 
ANZALL-030500-
MARINE OBSERVATIONS
  
STATION/POSITION TIME  TEMP    WIND        PRES    VSBY  WAVE
                       AIR SEA DIR/SP/G                  HT/PER
                 (UTC) (F)     (DEG/KT/KT) (MB)    (MI)  (FT/S)
BOSTON BUOY      0350   57 58   40/ 17/ 21 1014.7R         4/ 5
BUZZARDS BAY     0300   66      10/  9/ 10 1013.1F
NANTUCKET SOUND  0350   64 63   20/  8/ 10 1012.0R         1/ 3
MASS BAY-STELLWA 0204   58 59   70/ 17/ 21 1013.0R  1 7/8  4/ 5
ISLE OF SHOALS   0300   57      20/ 12/ 13 1015.2R
S OF BLOCK IS    0356      62                N/A           2/17
$$

......................KEY.........................
  SKY/WX - SKY CONDITION/PRESENT WEATHER
  TMP    - TEMPERATURE IN FAHRENHEIT
  DWPT   - DEWPOINT IN FAHRENHEIT
  RH     - RELATIVE HUMIDITY IN PERCENT
  WIND   - DIRECTION AND SPEED IN MPH
  PRES   - MEAN SEA LEVEL PRESSURE IN INCHES OF HG
  WCI    - WIND CHILL INDEX
  VSB    - VISIBILITY IN MILES
  HX     - HEAT INDEX
  TC     - TEMPERATURE IN CELSIUS
  VRB    - VARIABLE WIND DIRECTION
  N/A    - NOT AVAILABLE
  
      

Other recent Regional Weather Roundups

Fri Jun 9, 9:10pm EDT

Fri Jun 9, 8:10pm EDT

Fri Jun 9, 7:10pm EDT

Fri Jun 9, 6:10pm EDT

Fri Jun 9, 5:10pm EDT

Fri Jun 9, 4:10pm EDT

Fri Jun 9, 3:10pm EDT

Fri Jun 9, 2:10pm EDT

Fri Jun 9, 1:10pm EDT

Fri Jun 9, 12:10pm EDT

Fri Jun 9, 11:10am EDT

Fri Jun 9, 10:10am EDT

Fri Jun 9, 9:10am EDT

Fri Jun 9, 8:10am EDT

Fri Jun 9, 7:10am EDT

Fri Jun 9, 6:10am EDT

Fri Jun 9, 5:10am EDT

Fri Jun 9, 4:10am EDT

Fri Jun 9, 3:10am EDT

Fri Jun 9, 2:10am EDT

Fri Jun 9, 1:10am EDT

Fri Jun 9, 12:10am EDT

Thu Jun 8, 11:10pm EDT

Thu Jun 8, 10:10pm EDT

Thu Jun 8, 9:10pm EDT

Thu Jun 8, 8:10pm EDT

Thu Jun 8, 7:10pm EDT

Thu Jun 8, 6:10pm EDT

Thu Jun 8, 5:10pm EDT

Thu Jun 8, 4:10pm EDT

Thu Jun 8, 3:10pm EDT

Thu Jun 8, 2:10pm EDT

Thu Jun 8, 1:10pm EDT

Thu Jun 8, 12:10pm EDT

Thu Jun 8, 11:10am EDT

Thu Jun 8, 10:10am EDT

Thu Jun 8, 9:10am EDT

Thu Jun 8, 8:10am EDT

Thu Jun 8, 7:10am EDT

Thu Jun 8, 6:10am EDT

Thu Jun 8, 5:10am EDT

Thu Jun 8, 4:10am EDT

Thu Jun 8, 3:10am EDT

Thu Jun 8, 2:10am EDT

Thu Jun 8, 1:10am EDT

Thu Jun 8, 12:10am EDT

Wed Jun 7, 11:10pm EDT

Wed Jun 7, 10:10pm EDT

Wed Jun 7, 9:10pm EDT

Wed Jun 7, 8:10pm EDT

Wed Jun 7, 7:10pm EDT

Wed Jun 7, 6:10pm EDT

Wed Jun 7, 5:10pm EDT

Wed Jun 7, 4:10pm EDT

Wed Jun 7, 3:10pm EDT

Wed Jun 7, 2:10pm EDT

Wed Jun 7, 1:10pm EDT

Wed Jun 7, 12:10pm EDT

Wed Jun 7, 11:10am EDT

Wed Jun 7, 10:10am EDT

Wed Jun 7, 9:10am EDT

Wed Jun 7, 8:10am EDT

Wed Jun 7, 7:10am EDT

Wed Jun 7, 6:10am EDT

Wed Jun 7, 5:10am EDT

Wed Jun 7, 4:10am EDT

Wed Jun 7, 3:10am EDT

Wed Jun 7, 2:10am EDT

Wed Jun 7, 1:10am EDT

Wed Jun 7, 12:10am EDT

Tue Jun 6, 11:10pm EDT

Tue Jun 6, 10:10pm EDT

Tue Jun 6, 9:10pm EDT

Tue Jun 6, 8:10pm EDT

Tue Jun 6, 7:10pm EDT

Tue Jun 6, 6:10pm EDT

Tue Jun 6, 5:10pm EDT

Tue Jun 6, 4:10pm EDT

Tue Jun 6, 3:10pm EDT

Tue Jun 6, 2:10pm EDT

Tue Jun 6, 1:10pm EDT

Tue Jun 6, 12:10pm EDT

Tue Jun 6, 11:10am EDT

Tue Jun 6, 10:10am EDT

Tue Jun 6, 9:10am EDT

Tue Jun 6, 8:10am EDT

Tue Jun 6, 7:10am EDT

Tue Jun 6, 6:10am EDT

Tue Jun 6, 5:10am EDT

Tue Jun 6, 4:10am EDT

Tue Jun 6, 3:10am EDT

Tue Jun 6, 2:10am EDT

Tue Jun 6, 1:10am EDT

Tue Jun 6, 12:10am EDT

Mon Jun 5, 11:10pm EDT

Mon Jun 5, 10:10pm EDT

Mon Jun 5, 9:10pm EDT

Mon Jun 5, 8:10pm EDT

Mon Jun 5, 7:10pm EDT

Mon Jun 5, 6:10pm EDT

Mon Jun 5, 5:10pm EDT

Mon Jun 5, 4:10pm EDT

Mon Jun 5, 3:10pm EDT

Mon Jun 5, 2:10pm EDT

Mon Jun 5, 1:10pm EDT

Mon Jun 5, 12:10pm EDT

Mon Jun 5, 11:10am EDT

Mon Jun 5, 10:10am EDT

Mon Jun 5, 9:10am EDT

Mon Jun 5, 8:10am EDT

Mon Jun 5, 7:10am EDT

Mon Jun 5, 6:10am EDT

Mon Jun 5, 5:10am EDT

Mon Jun 5, 4:10am EDT

Mon Jun 5, 3:10am EDT

Mon Jun 5, 2:10am EDT

Mon Jun 5, 1:10am EDT

Mon Jun 5, 12:10am EDT

Sun Jun 4, 11:10pm EDT

Sun Jun 4, 10:10pm EDT

Sun Jun 4, 9:10pm EDT

Sun Jun 4, 8:10pm EDT

Sun Jun 4, 7:10pm EDT

Sun Jun 4, 6:10pm EDT

Sun Jun 4, 5:10pm EDT

Sun Jun 4, 4:10pm EDT

Sun Jun 4, 3:10pm EDT

Sun Jun 4, 2:10pm EDT

Sun Jun 4, 1:10pm EDT

Sun Jun 4, 12:10pm EDT

Sun Jun 4, 11:10am EDT

Sun Jun 4, 10:10am EDT

Sun Jun 4, 9:10am EDT

Sun Jun 4, 8:10am EDT

Sun Jun 4, 7:10am EDT

Sun Jun 4, 6:10am EDT

Sun Jun 4, 5:10am EDT

Sun Jun 4, 4:10am EDT

Sun Jun 4, 3:10am EDT

Sun Jun 4, 2:10am EDT

Sun Jun 4, 1:10am EDT

Sun Jun 4, 12:10am EDT

Sat Jun 3, 11:10pm EDT

Sat Jun 3, 10:10pm EDT

Sat Jun 3, 9:10pm EDT

Sat Jun 3, 8:10pm EDT

Sat Jun 3, 7:10pm EDT

Sat Jun 3, 6:10pm EDT

Sat Jun 3, 5:10pm EDT

Sat Jun 3, 4:10pm EDT

Sat Jun 3, 3:10pm EDT

Sat Jun 3, 2:10pm EDT

Sat Jun 3, 1:10pm EDT

Sat Jun 3, 12:10pm EDT

Sat Jun 3, 11:10am EDT

Sat Jun 3, 10:10am EDT

Sat Jun 3, 9:10am EDT

Sat Jun 3, 8:10am EDT

Sat Jun 3, 7:10am EDT

Sat Jun 3, 6:10am EDT

Sat Jun 3, 5:10am EDT

Sat Jun 3, 4:10am EDT

Sat Jun 3, 3:10am EDT

Sat Jun 3, 2:10am EDT

Sat Jun 3, 1:10am EDT

Fri Jun 2, 11:10pm EDT

Fri Jun 2, 10:10pm EDT